,,PA_Meas_PMT16A,,PR_Meas_QMR101_102,,RH_Meas_QMH101,,SR_Meas_QMS101,,TA_Meas_QMH101,,GenWind,,GenWind,
time,status,PA,status,PR,status,RH,status,SR,status,TA,status,DirAvg,status,SpdAvg,
2012-12-15, 00:00:04,VALID,918.588,VALID,0,VALID,96.3219,VALID,0,VALID,19.5873,VALID,52,VALID,0,
2012-12-15, 00:01:04,VALID,918.651,VALID,0,VALID,96.3829,VALID,0,VALID,19.5873,VALID,52,VALID,0,
2012-12-15, 00:02:04,VALID,918.65,VALID,0,VALID,96.36,VALID,0,VALID,19.5663,VALID,52,VALID,0,
2012-12-15, 00:03:04,VALID,918.686,VALID,0,VALID,96.421,VALID,0,VALID,19.5873,VALID,52,VALID,0,
2012-12-15, 00:04:04,VALID,918.689,VALID,0,VALID,96.4515,VALID,0,VALID,19.5873,VALID,52,VALID,0,
2012-12-15, 00:05:04,VALID,918.681,VALID,0,VALID,96.5048,VALID,0,VALID,19.6068,VALID,52,VALID,0,
2012-12-15, 00:06:04,VALID,918.705,VALID,0,VALID,96.4819,VALID,0,VALID,19.5873,VALID,52,VALID,0,
2012-12-15, 00:07:04,VALID,918.72,VALID,0,VALID,96.5124,VALID,0,VALID,19.6068,VALID,52,VALID,0,
2012-12-15, 00:08:04,VALID,918.717,VALID,0,VALID,96.5429,VALID,0,VALID,19.6458,VALID,52,VALID,0,
2012-12-15, 00:09:04,VALID,918.719,VALID,0,VALID,96.5963,VALID,0,VALID,19.7043,VALID,52,VALID,0,
2012-12-15, 00:10:04,VALID,918.692,VALID,0,VALID,96.6497,VALID,0,VALID,19.7238,VALID,52,VALID,0,
2012-12-15, 00:11:04,VALID,918.691,VALID,0,VALID,96.6649,VALID,0,VALID,19.7223,VALID,52,VALID,0,
2012-12-15, 00:12:04,VALID,918.672,VALID,0,VALID,96.6802,VALID,0,VALID,19.7628,VALID,52,VALID,0,
2012-12-15, 00:13:04,VALID,918.646,VALID,0,VALID,96.6954,VALID,0,VALID,19.8213,VALID,52,VALID,0,
2012-12-15, 00:14:04,VALID,918.648,VALID,0,VALID,96.7183,VALID,0,VALID,19.8213,VALID,52,VALID,0,
2012-12-15, 00:15:04,VALID,918.625,VALID,0,VALID,96.7183,VALID,0,VALID,19.8198,VALID,52,VALID,0,
2012-12-15, 00:16:04,VALID,918.646,VALID,0,VALID,96.7183,VALID,0,VALID,19.8618,VALID,52,VALID,0,
2012-12-15, 00:17:04,VALID,918.689,VALID,0,VALID,96.7183,VALID,0,VALID,19.8408,VALID,52,VALID,0,
2012-12-15, 00:18:04,VALID,918.67,VALID,0,VALID,96.7107,VALID,0,VALID,19.8213,VALID,52,VALID,0,
2012-12-15, 00:19:04,VALID,918.702,VALID,0,VALID,96.6573,VALID,0,VALID,19.7823,VALID,52,VALID,0,
2012-12-15, 00:20:04,VALID,918.659,VALID,0,VALID,96.6497,VALID,0,VALID,19.7823,VALID,52,VALID,0,
2012-12-15, 00:21:04,VALID,918.681,VALID,0,VALID,96.6725,VALID,0,VALID,19.8018,VALID,52,VALID,0,
2012-12-15, 00:22:04,VALID,918.657,VALID,0,VALID,96.6878,VALID,0,VALID,19.8408,VALID,52,VALID,0,
2012-12-15, 00:23:04,VALID,918.64,VALID,0,VALID,96.6878,VALID,0,VALID,19.8213,VALID,52,VALID,0,
2012-12-15, 00:24:04,VALID,918.622,VALID,0,VALID,96.6725,VALID,0,VALID,19.7823,VALID,52,VALID,0,
2012-12-15, 00:25:04,VALID,918.596,VALID,0,VALID,96.6954,VALID,0,VALID,19.7823,VALID,52,VALID,0,
2012-12-15, 00:26:04,VALID,918.593,VALID,0,VALID,96.7183,VALID,0,VALID,19.8213,VALID,46,VALID,0,
2012-12-15, 00:27:04,VALID,918.598,VALID,0,VALID,96.7335,VALID,0,VALID,19.8213,VALID,40,VALID,0,
2012-12-15, 00:28:04,VALID,918.598,VALID,0,VALID,96.7488,VALID,0,VALID,19.8603,VALID,40,VALID,0,
2012-12-15, 00:29:04,VALID,918.572,VALID,0,VALID,96.764,VALID,0,VALID,19.8018,VALID,330,VALID,0,
2012-12-15, 00:30:04,VALID,918.566,VALID,0,VALID,96.7716,VALID,0,VALID,19.8213,VALID,8,VALID,0,
2012-12-15, 00:31:04,VALID,918.585,VALID,0,VALID,96.8021,VALID,0,VALID,19.8213,VALID,356,VALID,0,
2012-12-15, 00:32:04,VALID,918.581,VALID,0,VALID,96.8326,VALID,0,VALID,19.8603,VALID,358,VALID,0,
2012-12-15, 00:33:04,VALID,918.564,VALID,0,VALID,96.8326,VALID,0,VALID,19.7823,VALID,358,VALID,0,
2012-12-15, 00:34:04,VALID,918.606,VALID,0,VALID,96.8403,VALID,0,VALID,19.8798,VALID,359,VALID,0,
2012-12-15, 00:35:04,VALID,918.602,VALID,0,VALID,96.8707,VALID,0,VALID,19.8408,VALID,1,VALID,0,
2012-12-15, 00:36:04,VALID,918.597,VALID,0,VALID,96.886,VALID,0,VALID,19.8603,VALID,1,VALID,0,
2012-12-15, 00:37:04,VALID,918.578,VALID,0,VALID,96.9241,VALID,0,VALID,19.8993,VALID,1,VALID,0,
2012-12-15, 00:38:04,VALID,918.556,VALID,0,VALID,96.9317,VALID,0,VALID,19.9188,VALID,1,VALID,0,
2012-12-15, 00:39:04,VALID,918.562,VALID,0,VALID,96.9241,VALID,0,VALID,19.9188,VALID,1,VALID,0,
2012-12-15, 00:40:04,VALID,918.54,VALID,0,VALID,96.9317,VALID,0,VALID,19.8993,VALID,1,VALID,0,
2012-12-15, 00:41:04,VALID,918.527,VALID,0,VALID,96.9546,VALID,0,VALID,19.8993,VALID,355,VALID,0,
2012-12-15, 00:42:04,VALID,918.515,VALID,0,VALID,96.9546,VALID,0,VALID,19.9203,VALID,355,VALID,0,
2012-12-15, 00:43:04,VALID,918.503,VALID,0,VALID,96.9394,VALID,0,VALID,19.8993,VALID,355,VALID,0,
2012-12-15, 00:44:04,VALID,918.482,VALID,0,VALID,96.9546,VALID,0,VALID,19.8993,VALID,355,VALID,0,
2012-12-15, 00:45:04,VALID,918.476,VALID,0,VALID,96.9546,VALID,0,VALID,19.8993,VALID,355,VALID,0,
2012-12-15, 00:46:04,VALID,918.458,VALID,0,VALID,96.9698,VALID,0,VALID,19.8993,VALID,355,VALID,0,
2012-12-15, 00:47:04,VALID,918.463,VALID,0,VALID,96.9851,VALID,0,VALID,19.9008,VALID,10,VALID,0,
2012-12-15, 00:48:04,VALID,918.44,VALID,0,VALID,96.9698,VALID,0,VALID,19.8993,VALID,10,VALID,0,
2012-12-15, 00:49:04,VALID,918.427,VALID,0,VALID,97.0003,VALID,0,VALID,19.8798,VALID,10,VALID,0,
2012-12-15, 00:50:04,VALID,918.415,VALID,0,VALID,97.0003,VALID,0,VALID,19.8993,VALID,10,VALID,0,
2012-12-15, 00:51:04,VALID,918.429,VALID,0,VALID,96.9927,VALID,0,VALID,19.8798,VALID,10,VALID,0,
2012-12-15, 00:52:04,VALID,918.413,VALID,0,VALID,97.0232,VALID,0,VALID,19.8603,VALID,10,VALID,0,
2012-12-15, 00:53:04,VALID,918.435,VALID,0,VALID,96.9927,VALID,0,VALID,19.8603,VALID,10,VALID,0,
2012-12-15, 00:54:04,VALID,918.467,VALID,0,VALID,97.0156,VALID,0,VALID,19.8408,VALID,10,VALID,0,
2012-12-15, 00:55:04,VALID,918.43,VALID,0,VALID,97.008,VALID,0,VALID,19.8213,VALID,10,VALID,0,
2012-12-15, 00:56:04,VALID,918.46,VALID,0,VALID,97.0232,VALID,0,VALID,19.8603,VALID,10,VALID,0,
2012-12-15, 00:57:04,VALID,918.462,VALID,0,VALID,97.0613,VALID,0,VALID,19.8408,VALID,10,VALID,0,
2012-12-15, 00:58:04,VALID,918.427,VALID,0,VALID,97.0461,VALID,0,VALID,19.8408,VALID,9,VALID,0,
2012-12-15, 00:59:04,VALID,918.452,VALID,0,VALID,97.0537,VALID,0,VALID,19.8603,VALID,10,VALID,0,
2012-12-15, 01:00:04,VALID,918.429,VALID,0,VALID,97.0842,VALID,0,VALID,19.8603,VALID,10,VALID,0,
2012-12-15, 01:01:04,VALID,918.443,VALID,0,VALID,97.0766,VALID,0,VALID,19.8798,VALID,10,VALID,0,
2012-12-15, 01:02:04,VALID,918.426,VALID,0,VALID,97.0766,VALID,0,VALID,19.8798,VALID,359,VALID,0,
2012-12-15, 01:03:04,VALID,918.373,VALID,0,VALID,97.0994,VALID,0,VALID,19.8993,VALID,3,VALID,0,
2012-12-15, 01:04:04,VALID,918.357,VALID,0,VALID,97.0918,VALID,0,VALID,19.9188,VALID,6,VALID,0,
2012-12-15, 01:05:04,VALID,918.356,VALID,0,VALID,97.0994,VALID,0,VALID,19.9203,VALID,6,VALID,0,
2012-12-15, 01:06:04,VALID,918.334,VALID,0,VALID,97.1223,VALID,0,VALID,19.8993,VALID,6,VALID,0,
2012-12-15, 01:07:04,VALID,918.321,VALID,0,VALID,97.1147,VALID,0,VALID,19.8993,VALID,6,VALID,0,
2012-12-15, 01:08:04,VALID,918.293,VALID,0,VALID,97.1071,VALID,0,VALID,19.9203,VALID,6,VALID,0,
2012-12-15, 01:09:04,VALID,918.268,VALID,0,VALID,97.0994,VALID,0,VALID,19.8798,VALID,6,VALID,0,
2012-12-15, 01:10:04,VALID,918.266,VALID,0,VALID,97.0994,VALID,0,VALID,19.8408,VALID,6,VALID,0,
2012-12-15, 01:11:04,VALID,918.261,VALID,0,VALID,97.0842,VALID,0,VALID,19.8408,VALID,6,VALID,0,
2012-12-15, 01:12:04,VALID,918.219,VALID,0,VALID,97.0918,VALID,0,VALID,19.8408,VALID,6,VALID,0,
2012-12-15, 01:13:04,VALID,918.194,VALID,0,VALID,97.1147,VALID,0,VALID,19.8213,VALID,6,VALID,0,
2012-12-15, 01:14:04,VALID,918.179,VALID,0,VALID,97.1223,VALID,0,VALID,19.8408,VALID,6,VALID,0,
2012-12-15, 01:15:04,VALID,918.161,VALID,0,VALID,97.1376,VALID,0,VALID,19.8408,VALID,6,VALID,0,
2012-12-15, 01:16:04,VALID,918.124,VALID,0,VALID,97.1376,VALID,0,VALID,19.8408,VALID,6,VALID,0,
2012-12-15, 01:17:04,VALID,918.106,VALID,0,VALID,97.1376,VALID,0,VALID,19.8018,VALID,6,VALID,0,
2012-12-15, 01:18:04,VALID,918.114,VALID,0,VALID,97.1452,VALID,0,VALID,19.8018,VALID,6,VALID,0,
2012-12-15, 01:19:04,VALID,918.064,VALID,0,VALID,97.1299,VALID,0,VALID,19.8003,VALID,6,VALID,0,
2012-12-15, 01:20:04,VALID,918.061,VALID,0,VALID,97.1528,VALID,0,VALID,19.8213,VALID,6,VALID,0,
2012-12-15, 01:21:04,VALID,918.044,VALID,0,VALID,97.1452,VALID,0,VALID,19.8213,VALID,6,VALID,0,
2012-12-15, 01:22:04,VALID,918.054,VALID,0,VALID,97.1681,VALID,0,VALID,19.8213,VALID,6,VALID,0,
2012-12-15, 01:23:04,VALID,918.028,VALID,0,VALID,97.1604,VALID,0,VALID,19.8408,VALID,6,VALID,0,
2012-12-15, 01:24:04,VALID,918.029,VALID,0,VALID,97.1604,VALID,0,VALID,19.8408,VALID,6,VALID,0,
2012-12-15, 01:25:04,VALID,917.999,VALID,0,VALID,97.1833,VALID,0,VALID,19.8603,VALID,6,VALID,0,
2012-12-15, 01:26:04,VALID,918.012,VALID,0,VALID,97.1833,VALID,0,VALID,19.8588,VALID,6,VALID,0,
2012-12-15, 01:27:04,VALID,918.027,VALID,0,VALID,97.1833,VALID,0,VALID,19.8993,VALID,6,VALID,0,
2012-12-15, 01:28:04,VALID,918.02,VALID,0,VALID,97.1909,VALID,0,VALID,19.8993,VALID,6,VALID,0,
2012-12-15, 01:29:04,VALID,918.04,VALID,0,VALID,97.1681,VALID,0,VALID,19.8798,VALID,6,VALID,0,
2012-12-15, 01:30:04,VALID,918.028,VALID,0,VALID,97.1986,VALID,0,VALID,19.9203,VALID,6,VALID,0,
2012-12-15, 01:31:04,VALID,918.027,VALID,0,VALID,97.1833,VALID,0,VALID,19.8993,VALID,6,VALID,0,
2012-12-15, 01:32:04,VALID,918.031,VALID,0,VALID,97.1681,VALID,0,VALID,19.9203,VALID,6,VALID,0,
2012-12-15, 01:33:04,VALID,918.042,VALID,0,VALID,97.1757,VALID,0,VALID,19.9188,VALID,6,VALID,0,
2012-12-15, 01:34:04,VALID,918.016,VALID,0,VALID,97.2062,VALID,0,VALID,19.9383,VALID,6,VALID,0,
2012-12-15, 01:35:04,VALID,918.015,VALID,0,VALID,97.1986,VALID,0,VALID,19.9578,VALID,6,VALID,0,
2012-12-15, 01:36:04,VALID,918.009,VALID,0,VALID,97.1986,VALID,0,VALID,19.9773,VALID,6,VALID,0,
2012-12-15, 01:37:04,VALID,917.986,VALID,0,VALID,97.1909,VALID,0,VALID,19.9383,VALID,6,VALID,0,
2012-12-15, 01:38:04,VALID,917.964,VALID,0,VALID,97.1604,VALID,0,VALID,19.8993,VALID,6,VALID,0,
2012-12-15, 01:39:04,VALID,917.935,VALID,0,VALID,97.1833,VALID,0,VALID,19.8603,VALID,6,VALID,0,
2012-12-15, 01:40:04,VALID,917.943,VALID,0,VALID,97.1604,VALID,0,VALID,19.8603,VALID,6,VALID,0,
2012-12-15, 01:41:04,VALID,917.914,VALID,0,VALID,97.1757,VALID,0,VALID,19.8213,VALID,6,VALID,0,
2012-12-15, 01:42:04,VALID,917.909,VALID,0,VALID,97.1681,VALID,0,VALID,19.8018,VALID,6,VALID,0,
2012-12-15, 01:43:04,VALID,917.903,VALID,0,VALID,97.1833,VALID,0,VALID,19.8018,VALID,6,VALID,0,
2012-12-15, 01:44:04,VALID,917.892,VALID,0,VALID,97.1528,VALID,0,VALID,19.8018,VALID,6,VALID,0,
2012-12-15, 01:45:04,VALID,917.861,VALID,0,VALID,97.1681,VALID,0,VALID,19.8033,VALID,6,VALID,0,
2012-12-15, 01:46:04,VALID,917.873,VALID,0,VALID,97.1757,VALID,0,VALID,19.7823,VALID,6,VALID,0,
2012-12-15, 01:47:04,VALID,917.855,VALID,0,VALID,97.1757,VALID,0,VALID,19.7823,VALID,6,VALID,0,
2012-12-15, 01:48:04,VALID,917.866,VALID,0,VALID,97.1528,VALID,0,VALID,19.7823,VALID,6,VALID,0,
2012-12-15, 01:49:04,VALID,917.862,VALID,0,VALID,97.1909,VALID,0,VALID,19.7418,VALID,6,VALID,0,
2012-12-15, 01:50:04,VALID,917.829,VALID,0,VALID,97.1681,VALID,0,VALID,19.7628,VALID,6,VALID,0,
2012-12-15, 01:51:04,VALID,917.827,VALID,0,VALID,97.1833,VALID,0,VALID,19.7433,VALID,6,VALID,0,
2012-12-15, 01:52:04,VALID,917.8,VALID,0,VALID,97.1986,VALID,0,VALID,19.7433,VALID,6,VALID,0,
2012-12-15, 01:53:04,VALID,917.783,VALID,0,VALID,97.1833,VALID,0,VALID,19.7433,VALID,6,VALID,0,
2012-12-15, 01:54:04,VALID,917.784,VALID,0,VALID,97.2062,VALID,0,VALID,19.7238,VALID,6,VALID,0,
2012-12-15, 01:55:04,VALID,917.752,VALID,0,VALID,97.1909,VALID,0,VALID,19.7238,VALID,6,VALID,0,
2012-12-15, 01:56:04,VALID,917.752,VALID,0,VALID,97.1986,VALID,0,VALID,19.7433,VALID,6,VALID,0,
2012-12-15, 01:57:04,VALID,917.773,VALID,0,VALID,97.2062,VALID,0,VALID,19.7448,VALID,6,VALID,0,
2012-12-15, 01:58:04,VALID,917.711,VALID,0,VALID,97.2138,VALID,0,VALID,19.7238,VALID,6,VALID,0,
2012-12-15, 01:59:04,VALID,917.724,VALID,0,VALID,97.2138,VALID,0,VALID,19.7628,VALID,6,VALID,0,
2012-12-15, 02:00:04,VALID,917.715,VALID,0,VALID,97.2138,VALID,0,VALID,19.7238,VALID,6,VALID,0,
2012-12-15, 02:01:04,VALID,917.692,VALID,0,VALID,97.2138,VALID,0,VALID,19.7433,VALID,6,VALID,0,
2012-12-15, 02:02:04,VALID,917.674,VALID,0.2,VALID,97.2138,VALID,0,VALID,19.7238,VALID,6,VALID,0,
2012-12-15, 02:03:04,VALID,917.645,VALID,0,VALID,97.229,VALID,0,VALID,19.7433,VALID,6,VALID,0,
2012-12-15, 02:04:04,VALID,917.66,VALID,0,VALID,97.2367,VALID,0,VALID,19.7628,VALID,6,VALID,0,
2012-12-15, 02:05:04,VALID,917.601,VALID,0,VALID,97.2367,VALID,0,VALID,19.8018,VALID,6,VALID,0,
2012-12-15, 02:06:04,VALID,917.637,VALID,0,VALID,97.2138,VALID,0,VALID,19.8423,VALID,6,VALID,0,
2012-12-15, 02:07:04,VALID,917.625,VALID,0,VALID,97.2214,VALID,0,VALID,19.8213,VALID,6,VALID,0,
2012-12-15, 02:08:04,VALID,917.612,VALID,0,VALID,97.2214,VALID,0,VALID,19.8408,VALID,6,VALID,0,
2012-12-15, 02:09:04,VALID,917.58,VALID,0,VALID,97.229,VALID,0,VALID,19.8213,VALID,6,VALID,0,
2012-12-15, 02:10:04,VALID,917.587,VALID,0,VALID,97.2138,VALID,0,VALID,19.8423,VALID,6,VALID,0,
2012-12-15, 02:11:04,VALID,917.594,VALID,0,VALID,97.229,VALID,0,VALID,19.8423,VALID,6,VALID,0,
2012-12-15, 02:12:04,VALID,917.587,VALID,0,VALID,97.2595,VALID,0,VALID,19.8603,VALID,6,VALID,0,
2012-12-15, 02:13:04,VALID,917.595,VALID,0,VALID,97.229,VALID,0,VALID,19.8603,VALID,6,VALID,0,
2012-12-15, 02:14:04,VALID,917.573,VALID,0,VALID,97.2138,VALID,0,VALID,19.8408,VALID,6,VALID,0,
2012-12-15, 02:15:04,VALID,917.57,VALID,0,VALID,97.2443,VALID,0,VALID,19.8213,VALID,6,VALID,0,
2012-12-15, 02:16:04,VALID,917.599,VALID,0,VALID,97.2367,VALID,0,VALID,19.8018,VALID,6,VALID,0,
2012-12-15, 02:17:04,VALID,917.586,VALID,0,VALID,97.2367,VALID,0,VALID,19.7808,VALID,6,VALID,0,
2012-12-15, 02:18:04,VALID,917.599,VALID,0,VALID,97.229,VALID,0,VALID,19.8033,VALID,6,VALID,0,
2012-12-15, 02:19:04,VALID,917.614,VALID,0,VALID,97.2443,VALID,0,VALID,19.8018,VALID,6,VALID,0,
2012-12-15, 02:20:04,VALID,917.619,VALID,0,VALID,97.2443,VALID,0,VALID,19.8018,VALID,6,VALID,0,
2012-12-15, 02:21:04,VALID,917.614,VALID,0.2,VALID,97.2443,VALID,0,VALID,19.8018,VALID,6,VALID,0,
2012-12-15, 02:22:04,VALID,917.624,VALID,0,VALID,97.2367,VALID,0,VALID,19.8018,VALID,6,VALID,0,
2012-12-15, 02:23:04,VALID,917.608,VALID,0,VALID,97.2367,VALID,0,VALID,19.8603,VALID,6,VALID,0,
2012-12-15, 02:24:04,VALID,917.6,VALID,0,VALID,97.2367,VALID,0,VALID,19.8798,VALID,6,VALID,0,
2012-12-15, 02:25:04,VALID,917.573,VALID,0,VALID,97.229,VALID,0,VALID,19.9008,VALID,6,VALID,0,
2012-12-15, 02:26:04,VALID,917.568,VALID,0,VALID,97.2443,VALID,0,VALID,19.8993,VALID,6,VALID,0,
2012-12-15, 02:27:04,VALID,917.541,VALID,0,VALID,97.2519,VALID,0,VALID,19.8603,VALID,6,VALID,0,
2012-12-15, 02:28:04,VALID,917.564,VALID,0,VALID,97.2367,VALID,0,VALID,19.8408,VALID,46,VALID,0,
2012-12-15, 02:29:04,VALID,917.53,VALID,0,VALID,97.2443,VALID,0,VALID,19.8408,VALID,140,VALID,0,
2012-12-15, 02:30:04,VALID,917.519,VALID,0,VALID,97.2595,VALID,0,VALID,19.8408,VALID,140,VALID,0,
2012-12-15, 02:31:04,VALID,917.505,VALID,0,VALID,97.2672,VALID,0,VALID,19.8408,VALID,140,VALID,0,
2012-12-15, 02:32:04,VALID,917.509,VALID,0,VALID,97.2519,VALID,0,VALID,19.8603,VALID,140,VALID,0,
2012-12-15, 02:33:04,VALID,917.497,VALID,0,VALID,97.2519,VALID,0,VALID,19.8603,VALID,140,VALID,0,
2012-12-15, 02:34:04,VALID,917.489,VALID,0,VALID,97.2519,VALID,0,VALID,19.8603,VALID,140,VALID,0,
2012-12-15, 02:35:04,VALID,917.484,VALID,0,VALID,97.2672,VALID,0,VALID,19.8798,VALID,140,VALID,0,
2012-12-15, 02:36:04,VALID,917.424,VALID,0,VALID,97.2595,VALID,0,VALID,19.8798,VALID,140,VALID,0,
2012-12-15, 02:37:04,VALID,917.47,VALID,0,VALID,97.2748,VALID,0,VALID,19.8798,VALID,140,VALID,0,
2012-12-15, 02:38:04,VALID,917.456,VALID,0,VALID,97.2519,VALID,0,VALID,19.8603,VALID,140,VALID,0,
2012-12-15, 02:39:04,VALID,917.458,VALID,0,VALID,97.2672,VALID,0,VALID,19.8603,VALID,140,VALID,0,
2012-12-15, 02:40:04,VALID,917.476,VALID,0,VALID,97.2824,VALID,0,VALID,19.8408,VALID,140,VALID,0,
2012-12-15, 02:41:04,VALID,917.439,VALID,0,VALID,97.2367,VALID,0,VALID,19.8603,VALID,140,VALID,0,
2012-12-15, 02:42:04,VALID,917.45,VALID,0,VALID,97.2672,VALID,0,VALID,19.8408,VALID,140,VALID,0,
2012-12-15, 02:43:04,VALID,917.436,VALID,0,VALID,97.2595,VALID,0,VALID,19.8408,VALID,140,VALID,0,
2012-12-15, 02:44:04,VALID,917.418,VALID,0,VALID,97.2748,VALID,0,VALID,19.8408,VALID,140,VALID,0,
2012-12-15, 02:45:04,VALID,917.417,VALID,0,VALID,97.2672,VALID,0,VALID,19.8603,VALID,140,VALID,0,
2012-12-15, 02:46:04,VALID,917.382,VALID,0,VALID,97.29,VALID,0.107441,VALID,19.8408,VALID,140,VALID,0,
2012-12-15, 02:47:04,VALID,917.378,VALID,0,VALID,97.29,VALID,0,VALID,19.8198,VALID,140,VALID,0,
2012-12-15, 02:48:04,VALID,917.357,VALID,0,VALID,97.2748,VALID,0,VALID,19.8603,VALID,140,VALID,0,
2012-12-15, 02:49:04,VALID,917.356,VALID,0,VALID,97.2824,VALID,0,VALID,19.8408,VALID,140,VALID,0,
2012-12-15, 02:50:04,VALID,917.337,VALID,0,VALID,97.2824,VALID,0,VALID,19.8603,VALID,140,VALID,0,
2012-12-15, 02:51:04,VALID,917.301,VALID,0,VALID,97.2824,VALID,0,VALID,19.8798,VALID,140,VALID,0,
2012-12-15, 02:52:04,VALID,917.302,VALID,0,VALID,97.29,VALID,0,VALID,19.8813,VALID,140,VALID,0,
2012-12-15, 02:53:04,VALID,917.288,VALID,0,VALID,97.2977,VALID,0,VALID,19.8798,VALID,140,VALID,0,
2012-12-15, 02:54:04,VALID,917.265,VALID,0,VALID,97.2824,VALID,0,VALID,19.8603,VALID,140,VALID,0,
2012-12-15, 02:55:04,VALID,917.246,VALID,0,VALID,97.2748,VALID,0,VALID,19.8993,VALID,140,VALID,0,
2012-12-15, 02:56:04,VALID,917.242,VALID,0,VALID,97.29,VALID,0,VALID,19.8798,VALID,140,VALID,0,
2012-12-15, 02:57:04,VALID,917.222,VALID,0,VALID,97.29,VALID,0,VALID,19.8993,VALID,140,VALID,0,
2012-12-15, 02:58:04,VALID,917.187,VALID,0,VALID,97.2824,VALID,0,VALID,19.9188,VALID,140,VALID,0,
2012-12-15, 02:59:04,VALID,917.211,VALID,0,VALID,97.29,VALID,0,VALID,19.9188,VALID,140,VALID,0,
2012-12-15, 03:00:04,VALID,917.172,VALID,0,VALID,97.29,VALID,0,VALID,19.9188,VALID,140,VALID,0,
2012-12-15, 03:01:04,VALID,917.146,VALID,0,VALID,97.3053,VALID,0,VALID,19.8798,VALID,140,VALID,0,
2012-12-15, 03:02:04,VALID,917.139,VALID,0,VALID,97.2977,VALID,0,VALID,19.9008,VALID,140,VALID,0,
2012-12-15, 03:03:04,VALID,917.125,VALID,0,VALID,97.29,VALID,0,VALID,19.8993,VALID,140,VALID,0,
2012-12-15, 03:04:04,VALID,917.103,VALID,0,VALID,97.3053,VALID,0,VALID,19.8798,VALID,140,VALID,0,
2012-12-15, 03:05:04,VALID,917.089,VALID,0,VALID,97.2977,VALID,0,VALID,19.8813,VALID,140,VALID,0,
2012-12-15, 03:06:04,VALID,917.07,VALID,0,VALID,97.3129,VALID,0,VALID,19.8798,VALID,140,VALID,0,
2012-12-15, 03:07:04,VALID,917.063,VALID,0,VALID,97.2977,VALID,0,VALID,19.8603,VALID,140,VALID,0,
2012-12-15, 03:08:04,VALID,917.089,VALID,0,VALID,97.2977,VALID,0,VALID,19.8603,VALID,140,VALID,0,
2012-12-15, 03:09:04,VALID,917.09,VALID,0,VALID,97.2977,VALID,0,VALID,19.8408,VALID,140,VALID,0,
2012-12-15, 03:10:04,VALID,917.082,VALID,0,VALID,97.2977,VALID,0,VALID,19.8603,VALID,107,VALID,0,
2012-12-15, 03:11:04,VALID,917.056,VALID,0,VALID,97.2977,VALID,0,VALID,19.8813,VALID,98,VALID,0,
2012-12-15, 03:12:04,VALID,917.069,VALID,0,VALID,97.2748,VALID,0,VALID,19.8408,VALID,98,VALID,0,
2012-12-15, 03:13:04,VALID,917.073,VALID,0,VALID,97.2977,VALID,0,VALID,19.9008,VALID,67,VALID,0,
2012-12-15, 03:14:04,VALID,917.072,VALID,0,VALID,97.2977,VALID,0,VALID,19.8213,VALID,60,VALID,0,
2012-12-15, 03:15:04,VALID,917.08,VALID,0,VALID,97.29,VALID,0,VALID,19.8393,VALID,60,VALID,0,
2012-12-15, 03:16:04,VALID,917.083,VALID,0,VALID,97.2977,VALID,0,VALID,19.8408,VALID,60,VALID,0,
2012-12-15, 03:17:04,VALID,917.042,VALID,0,VALID,97.2824,VALID,0,VALID,19.8033,VALID,60,VALID,0,
2012-12-15, 03:18:04,VALID,917.045,VALID,0,VALID,97.2748,VALID,0,VALID,19.8018,VALID,60,VALID,0,
2012-12-15, 03:19:04,VALID,917.051,VALID,0,VALID,97.3053,VALID,0,VALID,19.8018,VALID,60,VALID,0,
2012-12-15, 03:20:04,VALID,916.999,VALID,0,VALID,97.29,VALID,0,VALID,19.8213,VALID,60,VALID,0,
2012-12-15, 03:21:04,VALID,917.049,VALID,0,VALID,97.29,VALID,0,VALID,19.8213,VALID,60,VALID,0,
2012-12-15, 03:22:04,VALID,917.029,VALID,0,VALID,97.2748,VALID,0,VALID,19.8213,VALID,60,VALID,0,
2012-12-15, 03:23:04,VALID,917.027,VALID,0,VALID,97.2977,VALID,0,VALID,19.8408,VALID,60,VALID,0,
2012-12-15, 03:24:04,VALID,917.022,VALID,0,VALID,97.29,VALID,0,VALID,19.8408,VALID,60,VALID,0,
2012-12-15, 03:25:04,VALID,917.008,VALID,0,VALID,97.29,VALID,0,VALID,19.8408,VALID,60,VALID,0,
2012-12-15, 03:26:04,VALID,917.007,VALID,0,VALID,97.2977,VALID,0,VALID,19.8798,VALID,60,VALID,0,
2012-12-15, 03:27:04,VALID,917.015,VALID,0,VALID,97.2824,VALID,0,VALID,19.8408,VALID,60,VALID,0,
2012-12-15, 03:28:04,VALID,917.014,VALID,0,VALID,97.29,VALID,0,VALID,19.8603,VALID,60,VALID,0,
2012-12-15, 03:29:04,VALID,917,VALID,0,VALID,97.29,VALID,0,VALID,19.8408,VALID,60,VALID,0,
2012-12-15, 03:30:04,VALID,916.979,VALID,0,VALID,97.29,VALID,0,VALID,19.8408,VALID,60,VALID,0,
2012-12-15, 03:31:04,VALID,916.977,VALID,0,VALID,97.2672,VALID,0,VALID,19.8408,VALID,60,VALID,0,
2012-12-15, 03:32:04,VALID,916.964,VALID,0,VALID,97.2824,VALID,0,VALID,19.8408,VALID,60,VALID,0,
2012-12-15, 03:33:04,VALID,916.977,VALID,0,VALID,97.2595,VALID,0,VALID,19.8618,VALID,60,VALID,0,
2012-12-15, 03:34:04,VALID,917.001,VALID,0,VALID,97.2672,VALID,0,VALID,19.8408,VALID,60,VALID,0,
2012-12-15, 03:35:04,VALID,916.988,VALID,0,VALID,97.2672,VALID,0,VALID,19.8603,VALID,60,VALID,0,
2012-12-15, 03:36:04,VALID,916.997,VALID,0,VALID,97.2824,VALID,0,VALID,19.8603,VALID,60,VALID,0,
2012-12-15, 03:37:04,VALID,916.962,VALID,0,VALID,97.2748,VALID,0,VALID,19.8603,VALID,60,VALID,0,
2012-12-15, 03:38:04,VALID,916.967,VALID,0,VALID,97.29,VALID,0,VALID,19.8588,VALID,60,VALID,0,
2012-12-15, 03:39:04,VALID,916.967,VALID,0,VALID,97.2748,VALID,0,VALID,19.8798,VALID,60,VALID,0,
2012-12-15, 03:40:04,VALID,916.955,VALID,0,VALID,97.2748,VALID,0,VALID,19.8993,VALID,60,VALID,0,
2012-12-15, 03:41:04,VALID,916.97,VALID,0,VALID,97.2595,VALID,0,VALID,19.9008,VALID,60,VALID,0,
2012-12-15, 03:42:04,VALID,916.952,VALID,0,VALID,97.2672,VALID,0,VALID,19.8798,VALID,117,VALID,0,
2012-12-15, 03:43:04,VALID,916.913,VALID,0,VALID,97.2672,VALID,0,VALID,19.8603,VALID,117,VALID,0,
2012-12-15, 03:44:04,VALID,916.972,VALID,0,VALID,97.29,VALID,0,VALID,19.8993,VALID,117,VALID,0,
2012-12-15, 03:45:04,VALID,916.958,VALID,0,VALID,97.2748,VALID,0,VALID,19.9188,VALID,117,VALID,0,
2012-12-15, 03:46:04,VALID,916.977,VALID,0,VALID,97.2748,VALID,0,VALID,19.9188,VALID,117,VALID,0,
2012-12-15, 03:47:04,VALID,916.996,VALID,0,VALID,97.2672,VALID,0,VALID,19.9008,VALID,117,VALID,0,
2012-12-15, 03:48:04,VALID,916.988,VALID,0,VALID,97.2748,VALID,0,VALID,19.8798,VALID,117,VALID,0,
2012-12-15, 03:49:04,VALID,916.988,VALID,0,VALID,97.2595,VALID,0,VALID,19.8993,VALID,117,VALID,0,
2012-12-15, 03:50:04,VALID,916.971,VALID,0,VALID,97.2824,VALID,0,VALID,19.8993,VALID,117,VALID,0,
2012-12-15, 03:51:04,VALID,916.981,VALID,0,VALID,97.2824,VALID,0,VALID,19.9188,VALID,117,VALID,0,
2012-12-15, 03:52:04,VALID,916.981,VALID,0,VALID,97.2824,VALID,0,VALID,19.8408,VALID,117,VALID,0,
2012-12-15, 03:53:04,VALID,916.984,VALID,0,VALID,97.29,VALID,0,VALID,19.8408,VALID,117,VALID,0,
2012-12-15, 03:54:04,VALID,916.972,VALID,0,VALID,97.2443,VALID,0,VALID,19.8993,VALID,117,VALID,0,
2012-12-15, 03:55:04,VALID,916.959,VALID,0.2,VALID,97.229,VALID,0,VALID,19.9383,VALID,117,VALID,0,
2012-12-15, 03:56:04,VALID,916.953,VALID,0,VALID,97.2672,VALID,0,VALID,19.9188,VALID,117,VALID,0,
2012-12-15, 03:57:04,VALID,916.987,VALID,0,VALID,97.2443,VALID,0,VALID,19.9398,VALID,117,VALID,0,
2012-12-15, 03:58:04,VALID,916.981,VALID,0,VALID,97.2062,VALID,0.107441,VALID,19.9383,VALID,117,VALID,0,
2012-12-15, 03:59:04,VALID,916.991,VALID,0,VALID,97.1757,VALID,0,VALID,19.9383,VALID,117,VALID,0,
2012-12-15, 04:00:04,VALID,916.979,VALID,0,VALID,97.1528,VALID,0.107441,VALID,19.9383,VALID,117,VALID,0,
2012-12-15, 04:01:04,VALID,916.999,VALID,0,VALID,97.1071,VALID,0,VALID,19.9173,VALID,117,VALID,0,
2012-12-15, 04:02:04,VALID,917.004,VALID,0,VALID,97.0766,VALID,0,VALID,19.9773,VALID,150,VALID,0,